This demonstration page uses our WeatherBlox Daily Observations layout. Learn more.

Left ArrowRight Arrow

41.12389, -100.76542

Hourly Observations for May 22, 2022

Temp ( °F °C ) Dew Point ( °F °C ) Humidity (%) Winds ( mph kmh ) Pressure ( in mb ) Visibility ( mi km ) Precip ( " mm )
12:53 am 00:53 Partly Cloudy 38 3.3 27 -2.8 65 65 Calm 30.35 1028 10 16 0.00 0.00
1:53 am 01:53 Clear 32 0 25 -3.9 75 75 SSW 3 6 30.36 1028 10 16 0.00 0.00
2:53 am 02:53 Clear 31 -0.6 25 -3.9 79 79 Calm 30.35 1028 10 16 0.00 0.00
3:53 am 03:53 Clear 31 -0.6 24 -4.4 76 76 Calm 30.37 1028 10 16 0.00 0.00
4:53 am 04:53 Clear 29 -1.7 24 -4.4 82 82 Calm 30.37 1029 10 16 0.00 0.00
5:53 am 05:53 Clear 29 -1.7 24 -4.4 82 82 WNW 5 7 30.38 1029 10 16 0.00 0.00
6:53 am 06:53 Sunny 31 -0.6 25 -3.9 79 79 E 3 6 30.38 1029 10 16 0.00 0.00
7:53 am 07:53 Sunny 39 3.9 30 -1.1 70 70 Calm 30.40 1030 10 16 0.00 0.00
8:53 am 08:53 Sunny 47 8.3 31 -0.6 54 54 ESE 7 11 30.41 1030 10 16 0.00 0.00
9:53 am 09:53 Sunny 53 11.7 29 -1.7 40 40 ESE 9 15 30.42 1030 10 16 0.00 0.00
10:53 am 10:53 Sunny 58 14.4 29 -1.7 33 33 VRB 3 6 30.38 1029 10 16 0.00 0.00
11:53 am 11:53 Sunny 62 16.7 28 -2.2 28 28 S 8 13 30.37 1028 10 16 0.00 0.00
12:53 pm 12:53 Mostly Sunny 66 18.9 28 -2.2 24 24 undefined N/A 30.32 1027 10 16 0.00 0.00
1:53 pm 13:53 Sunny 66 18.9 28 -2.2 24 24 SSW 12 19 30.31 1026 10 16 0.00 0.00
2:53 pm 14:53 Partly Cloudy 65 18.3 29 -1.7 26 26 S 7 11 30.28 1025 10 16 0.00 0.00
3:53 pm 15:53 Partly Cloudy 65 18.3 28 -2.2 25 25 SSW 8 13 30.26 1025 10 16 0.00 0.00
4:53 pm 16:53 Mostly Cloudy 66 18.9 28 -2.2 24 24 VRB 7 11 30.23 1024 10 16 0.00 0.00
5:53 pm 17:53 Cloudy 64 17.8 29 -1.7 27 27 S 10 17 30.22 1024 10 16 0.00 0.00
6:53 pm 18:53 Cloudy 62 16.7 32 0 32 32 SSE 6 9 30.22 1023 10 16 0.00 0.00
7:53 pm 19:53 Cloudy 61 16.1 32 0 34 34 SE 7 11 30.20 1023 10 16 0.00 0.00
8:53 pm 20:53 Cloudy 58 14.4 34 1.1 41 41 ESE 7 11 30.19 1022 10 16 0.00 0.00
9:53 pm 21:53 Cloudy 58 14.4 30 -1.1 35 35 S 6 9 30.21 1023 10 16 0.00 0.00
10:53 pm 22:53 Cloudy 57 13.9 31 -0.6 37 37 SE 5 7 30.23 1024 10 16 0.00 0.00
11:53 pm 23:53 Cloudy 58 14.4 31 -0.6 36 36 S 12 19 30.22 1024 10 16 0.00 0.00

Powered by AerisWeather